COSMOS 1275 DEB, 39938

Orbit data source: Space-Track

COSMOS 1275 DEB, 39938 is space debris in LEO originally from a launch on Thu, 04 Jun 1981 UTC launched from the Plesetsk Missile And Space Complex (PKMTR). Debris objects in space refer to the collection of defunct objects orbiting the Earth. Examples of debris include non-operational satellites, rocket bodies, and fragments generated from explosions, collisions, or faulty payload assembly.

Loading next visibility...
Identifier
39938, 1981-053MY
Orbit
LEO
Country
Flag of CISCIS
Related business
Manufacturer
Unknown
Mission
Spacecraft
Bus & Motor
Unknown
Mass
Unknown
Launch date (UTC)
1981-06-04 (44 years ago)
Launch vehicle
Unknown
Launch site
Plesetsk Missile And Space Complex (PKMTR)
Object type
Payload
Rocket body
Debris
Shape & HBR
Unknown shape, 0.1 m
Radar Cross Section
Small (<0.1 m²)

Expand to show TLE details & history
Last TLE update: 2 days ago

TLE from 2 days ago
0 COSMOS 1275 DEB
1 39938U 81053MY  25302.66100918  .00001492  00000-0  16261-2 0  9996
2 39938  83.0665 280.2105 0129887 248.4809 110.2457 13.68543977567708
Epoch: 2025-10-29T15:51Z
TLE epoch observation values (Epoch: 2025-10-29T15:51:51.193Z)
Latitude
0.00003°
Longitude
4.01625°
Altitude
1,041.976 km
Speed
7.314 km/s
True Right ascension
18h 40m 50s
True Declination
0° 00' 00"
Sunlit
Object was in daylight at epoch
Visualization orbit readout
Latitude
Unknown
Longitude
Unknown
Altitude
Unknown
Speed
Unknown
Apparent Right ascension
Unknown
Apparent Declination
Unknown
Sunlit
N/A
Visualization observer readout
Local Sidereal Time
22:09:02
Azimuth
Unknown
Elevation
Unknown
Doppler factor
Unknown
Orbital elements
Apogee altitude
1,097.813 km
Perigee altitude
906.098 km
Semi-major axis
7,380.092 km
Eccentricity
0.01299
Inclination
83.0665°
RAAN
280.2105°
Arg. of periapsis
248.4809°
True anomaly
111.6342°
Mean anomaly
110.2457°
Eccentric anomaly
110.94074°
Mean motion
3.42334 °/min
Orbital period
105.16 mins
BSTAR
0.0016261
Loading maneuver chart data...
Computing Atmospheric mass density...
Loading historical data...
Loading historical data...
Loading historical data...
Loading historical data...
Loading historical data...
Loading historical data...
Loading historical data...

Documentation

Showing up to 5 results
|